Terminal Aerodrome Forecast
Issued by NWS

Home | Current Version | Previous Version | Text Only | Print | Product List | Glossary On
Versions: 1 2 3 4 5 6 7 8 9 10 11 12 13 14 15 16 17 18 19 20 21 22 23 24 25 26 27 28 29 30 31 32 33 34 35 36 37 38 39 40 41 42 43 44 45 46 47
000
FTUS44 KHGX 221614 AAB
TAFUTS
TAF AMD
KUTS 221614Z 2216/2312 21017G24KT P6SM OVC016
     FM221900 23013KT P6SM SCT250
     FM230300 VRB05KT P6SM BKN200=

USA.gov is the U.S. government's official web portal to all federal, state and local government web resources and services.